Regional Weather Roundup
Issued by NWS

Home | Current Version | Previous Version | Graphics & Text | Print | Product List | Glossary On
Versions: 1 2 3 4 5 6 7 8 9 10 11 12 13 14 15 16 17 18 19 20 21 22 23 24 25 26 27
000
ASUS45 KCYS 221210
RWRWY

WYOMING REGIONAL WEATHER ROUNDUP
NATIONAL WEATHER SERVICE CHEYENNE WY
600 AM MDT SUN OCT 22 2017

NOTE:  "FAIR" INDICATES FEW OR NO CLOUDS BELOW 12,000 FEET
WITH NO SIGNIFICANT WEATHER AND/OR OBSTRUCTIONS TO VISIBILITY.

WYZ001-221300-
YELLOWSTONE NATIONAL PARK

CITY           SKY/WX    TMP DP  RH WIND       PRES   REMARKS
LK YELLOWSTONE   N/A     30  29  96 VRB3      30.21S
6HR MIN TEMP:  27; 6HR MAX TEMP:  30; 6HR PCP:  0.01;

W YELLOWSTONE  NOT AVBL

$$
WYZ002>013-054>058-071-098>099-221300-
NORTHERN WYOMING

CITY           SKY/WX    TMP DP  RH WIND       PRES   REMARKS
JACKSON        CLOUDY    36  31  82 SW12G22   30.23F WCI  28
CODY           FAIR      50  27  40 W25G33    29.98F
GREYBULL       FAIR      31  19  61 CALM      30.04R
6HR MIN TEMP:  27; 6HR MAX TEMP:  37;

WORLAND        FAIR      26  19  74 W3        30.03R
6HR MIN TEMP:  24; 6HR MAX TEMP:  32;

SHERIDAN       FAIR      32  20  61 SE3       29.88F
6HR MIN TEMP:  28; 6HR MAX TEMP:  37;

BUFFALO        FAIR      36  11  35 CALM      29.93R
6HR MIN TEMP:  31; 6HR MAX TEMP:  39;

GILLETTE       FAIR      42  18  37 SW17      29.93S
6HR MIN TEMP:  30; 6HR MAX TEMP:  43;

HULETT         FAIR      39  16  38 SW13      29.94F WCI  32
NEWCASTLE      FAIR      28  18  64 NE5       30.02S WCI  23

$$
WYZ014>020-022>026-101>103-221300-
CENTRAL WYOMING

CITY           SKY/WX    TMP DP  RH WIND       PRES   REMARKS
BIG PINEY      FAIR      21  17  84 S6        30.29S WCI  13
6HR MIN TEMP:  16; 6HR MAX TEMP:  25;

PINEDALE       CLOUDY    32  23  69 W6        30.29R WCI  26
DUBOIS         FAIR      36  27  69 NW20G29   30.13S WCI  25
LANDER         FAIR      31  20  63 CALM      30.09R
6HR MIN TEMP:  28; 6HR MAX TEMP:  35; 6HR PCP: TRACE;

RIVERTON       FAIR      35  18  49 S10       30.09S WCI  27
6HR MIN TEMP:  32; 6HR MAX TEMP:  37;

CASPER         FAIR      41  18  39 SW15G26   30.08R
6HR MIN TEMP:  35; 6HR MAX TEMP:  41; 6HR PCP: TRACE;

DOUGLAS        FAIR      35  19  52 S3        30.05R
6HR MIN TEMP:  32; 6HR MAX TEMP:  43; 6HR PCP: TRACE;


$$
WYZ021-027>030-104>119-221300-
SOUTHERN WYOMING

CITY           SKY/WX    TMP DP  RH WIND       PRES   REMARKS
EVANSTON       CLOUDY    36  19  50 SW12      30.36R WCI  28
6HR MIN TEMP:  32; 6HR MAX TEMP:  39;

KEMMERER       CLOUDY    34  21  60 SW5       30.32R WCI  30
FORT BRIDGER   CLOUDY    41  25  53 W17G24    30.35F
ROCK SPRINGS   FAIR      36  17  46 S20       30.30S WCI  25
6HR MIN TEMP:  34; 6HR MAX TEMP:  38;

DIXON          CLOUDY    36  21  55 W5        30.36S WCI  32
RAWLINS        FAIR      37  18  46 SW25G38   30.19R WCI  25
6HR MIN TEMP:  33; 6HR MAX TEMP:  37;

SARATOGA       FAIR      34  21  60 SW9G16    30.28S WCI  26
LARAMIE        FAIR      36  20  52 SW14      30.20R WCI  27
6HR MIN TEMP:  29; 6HR MAX TEMP:  38;

CHEYENNE       FAIR      43  20  39 W15G41    30.12S
6HR MIN TEMP:  40; 6HR MAX TEMP:  43;

TORRINGTON     FAIR      46  18  32 W14       30.06R
6HR MIN TEMP:  37; 6HR MAX TEMP:  47;

PINE BLUFFS    FAIR      37  19  48 MISG      30.12S

$$




USA.gov is the U.S. government's official web portal to all federal, state and local government web resources and services.